Check out our new BloomSky Weather System.

Active alerts

Galveston, TX
  Details for Galveston, TX Coastal Flood Advisory  +2 additional alerts
Houston, TX
  Details for Houston, TX Flash Flood Watch
Fort Bend, TX
  Details for Fort Bend, TX Flash Flood Watch


Thunder radar  blitzortung!


Rain radar more information rain snow radar


Visit our other weather sites:

Template documentation
and downloads

And another site



Weather Underground History page Text

Daily Summary for March 3, 2017 Units:  English    Metric   Both
« Previous Day
Next Day »
Daily Weekly Monthly Yearly Custom
  High: Low: Average:
Temperature: TemperatureF °F 45.3 °F 58.8 °F
Dew Point: DewpointF °F 30.0 °F 35.6 °F
Humidity: Humidity % 23 % 44 %
Wind Speed: WindSpeedMPH mph 0.0 mph 2.5 mph
Wind Gust: WindSpeedGustMPH mph - -
Wind:- - SE
Pressure: PressureIn in 30.42 in -
Precipitation: 0.00 in    
Historical Graphs
 
 
Tabular Data for March 3, 2017
Time Temperature Dew Point Pressure Wind Wind Speed Wind Gust Humidity Rainfall Rate (Hourly)
TemperatureF °F DewpointF °F PressureIn in Calm     Humidity % HourlyPrecipIn in
00:02 48.7 °F 36.0 °F 30.45 in Calm   1.0 mph 61 % 0.00 in
00:07 48.9 °F 36.1 °F 30.45 in Calm   1.0 mph 61 % 0.00 in
00:12 48.9 °F 35.2 °F 30.45 in Calm   1.0 mph 59 % 0.00 in
00:17 49.1 °F 34.9 °F 30.45 in North 1.0 mph 1.0 mph 58 % 0.00 in
00:22 49.8 °F 34.7 °F 30.45 in Calm   1.0 mph 56 % 0.00 in
00:27 50.4 °F 34.3 °F 30.45 in Calm   1.0 mph 54 % 0.00 in
00:32 50.9 °F 34.0 °F 30.45 in Calm   2.0 mph 52 % 0.00 in
00:37 51.4 °F 33.4 °F 30.45 in NNE 1.0 mph 2.0 mph 50 % 0.00 in
00:42 51.8 °F 33.8 °F 30.45 in Calm   2.0 mph 50 % 0.00 in
00:47 52.0 °F 33.4 °F 30.45 in NNW 1.0 mph 3.0 mph 49 % 0.00 in
00:52 52.2 °F 33.6 °F 30.45 in NNW 1.0 mph 4.0 mph 49 % 0.00 in
00:57 52.3 °F 33.3 °F 30.45 in North 1.0 mph 4.0 mph 48 % 0.00 in
01:02 52.5 °F 33.4 °F 30.45 in NW 1.0 mph 4.0 mph 48 % 0.00 in
01:07 52.7 °F 33.1 °F 30.45 in NNW 2.0 mph 3.0 mph 47 % 0.00 in
01:12 52.9 °F 33.3 °F 30.45 in NNW 1.0 mph 4.0 mph 47 % 0.00 in
01:17 52.9 °F 33.3 °F 30.46 in NNE 1.0 mph 4.0 mph 47 % 0.00 in
01:22 52.9 °F 33.3 °F 30.46 in North 2.0 mph 6.0 mph 47 % 0.00 in
01:27 52.9 °F 33.3 °F 30.46 in NNE 2.0 mph 6.0 mph 47 % 0.00 in
01:32 52.9 °F 33.3 °F 30.46 in NE 2.0 mph 6.0 mph 47 % 0.00 in
01:37 52.5 °F 33.4 °F 30.46 in North 1.0 mph 6.0 mph 48 % 0.00 in
01:42 52.3 °F 33.3 °F 30.45 in North 2.0 mph 6.0 mph 48 % 0.00 in
01:48 52.2 °F 33.6 °F 30.45 in NNW 1.0 mph 6.0 mph 49 % 0.00 in
01:53 52.0 °F 33.4 °F 30.45 in NNW 1.0 mph 5.0 mph 49 % 0.00 in
01:58 51.8 °F 33.3 °F 30.45 in North 1.0 mph 5.0 mph 49 % 0.00 in
02:03 51.6 °F 33.1 °F 30.45 in NE 2.0 mph 5.0 mph 49 % 0.00 in
02:08 51.6 °F 33.6 °F 30.45 in NE 2.0 mph 5.0 mph 50 % 0.00 in
02:13 51.6 °F 33.1 °F 30.45 in NNW 1.0 mph 7.0 mph 49 % 0.00 in
02:18 51.8 °F 33.3 °F 30.45 in NW 1.0 mph 9.0 mph 49 % 0.00 in
02:23 51.8 °F 33.3 °F 30.45 in NNW 3.0 mph 9.0 mph 49 % 0.00 in
02:28 52.0 °F 33.4 °F 30.45 in NNW 2.0 mph 9.0 mph 49 % 0.00 in
02:33 51.8 °F 33.3 °F 30.45 in Calm   6.0 mph 49 % 0.00 in
02:38 51.6 °F 33.6 °F 30.45 in Calm   6.0 mph 50 % 0.00 in
02:43 51.3 °F 33.3 °F 30.44 in NNE 2.0 mph 5.0 mph 50 % 0.00 in
02:48 51.3 °F 33.3 °F 30.45 in Calm   5.0 mph 50 % 0.00 in
02:53 51.1 °F 33.6 °F 30.44 in NE 1.0 mph 5.0 mph 51 % 0.00 in
02:58 50.7 °F 33.3 °F 30.44 in ENE 2.0 mph 5.0 mph 51 % 0.00 in
03:03 50.7 °F 33.3 °F 30.44 in NNE 1.0 mph 3.0 mph 51 % 0.00 in
03:08 50.5 °F 33.6 °F 30.44 in NNW 2.0 mph 4.0 mph 52 % 0.00 in
03:13 50.5 °F 33.6 °F 30.44 in NE 1.0 mph 4.0 mph 52 % 0.00 in
03:18 50.4 °F 33.4 °F 30.44 in ENE 1.0 mph 4.0 mph 52 % 0.00 in
03:23 50.2 °F 33.6 °F 30.44 in North 1.0 mph 4.0 mph 53 % 0.00 in
03:28 49.8 °F 33.4 °F 30.44 in North 2.0 mph 4.0 mph 53 % 0.00 in
03:33 49.8 °F 33.8 °F 30.44 in North 1.0 mph 4.0 mph 54 % 0.00 in
03:38 49.6 °F 33.6 °F 30.44 in North 1.0 mph 4.0 mph 54 % 0.00 in
03:43 49.5 °F 33.4 °F 30.44 in NNE 1.0 mph 4.0 mph 54 % 0.00 in
03:48 49.3 °F 33.8 °F 30.45 in NNW 1.0 mph 3.0 mph 55 % 0.00 in
03:49 49.3 °F 33.8 °F 30.45 in Calm   3.0 mph 55 % 0.00 in
03:54 48.9 °F 33.4 °F 30.45 in ENE 1.0 mph 3.0 mph 55 % 0.00 in
03:59 49.1 °F 33.6 °F 30.44 in Calm   3.0 mph 55 % 0.00 in
04:04 48.9 °F 33.4 °F 30.45 in Calm   5.0 mph 55 % 0.00 in
04:09 48.7 °F 33.8 °F 30.45 in ENE 1.0 mph 5.0 mph 56 % 0.00 in
04:14 48.6 °F 33.6 °F 30.45 in Calm   5.0 mph 56 % 0.00 in
04:19 48.6 °F 34.0 °F 30.45 in Calm   3.0 mph 57 % 0.00 in
04:24 48.4 °F 33.8 °F 30.45 in Calm   5.0 mph 57 % 0.00 in
04:29 48.2 °F 33.6 °F 30.45 in NNE 1.0 mph 5.0 mph 57 % 0.00 in
04:34 48.0 °F 34.0 °F 30.45 in North 1.0 mph 5.0 mph 58 % 0.00 in
04:39 47.8 °F 33.8 °F 30.45 in Calm   3.0 mph 58 % 0.00 in
04:44 47.8 °F 34.2 °F 30.46 in North 1.0 mph 4.0 mph 59 % 0.00 in
04:49 47.7 °F 34.0 °F 30.46 in North 2.0 mph 5.0 mph 59 % 0.00 in
04:54 47.7 °F 34.0 °F 30.46 in Calm   5.0 mph 59 % 0.00 in
04:59 47.5 °F 33.8 °F 30.46 in Calm   5.0 mph 59 % 0.00 in
05:04 47.5 °F 34.3 °F 30.46 in NE 1.0 mph 5.0 mph 60 % 0.00 in
05:09 47.1 °F 34.0 °F 30.47 in Calm   5.0 mph 60 % 0.00 in
05:14 46.9 °F 34.5 °F 30.47 in NE 1.0 mph 4.0 mph 62 % 0.00 in
05:19 46.8 °F 34.0 °F 30.47 in Calm   2.0 mph 61 % 0.00 in
05:24 46.6 °F 34.3 °F 30.48 in Calm   2.0 mph 62 % 0.00 in
05:29 46.2 °F 34.3 °F 30.48 in Calm   1.0 mph 63 % 0.00 in
05:34 46.2 °F 34.3 °F 30.48 in Calm   1.0 mph 63 % 0.00 in
05:39 46.0 °F 34.2 °F 30.48 in Calm   2.0 mph 63 % 0.00 in
05:44 45.7 °F 34.2 °F 30.48 in North 1.0 mph 2.0 mph 64 % 0.00 in
05:49 45.7 °F 34.2 °F 30.48 in Calm   2.0 mph 64 % 0.00 in
05:54 45.3 °F 34.3 °F 30.48 in Calm   2.0 mph 65 % 0.00 in
05:59 45.5 °F 34.3 °F 30.48 in Calm   2.0 mph 65 % 0.00 in
06:04 45.5 °F 34.3 °F 30.48 in NW 2.0 mph 2.0 mph 65 % 0.00 in
06:09 45.5 °F 34.3 °F 30.48 in Calm   3.0 mph 65 % 0.00 in
06:14 45.3 °F 34.3 °F 30.49 in Calm   3.0 mph 65 % 0.00 in
06:19 45.3 °F 34.7 °F 30.49 in Calm   3.0 mph 66 % 0.00 in
06:24 45.3 °F 34.7 °F 30.49 in Calm   1.0 mph 66 % 0.00 in
06:29 45.3 °F 34.7 °F 30.49 in ENE 3.0 mph 3.0 mph 66 % 0.00 in
06:34 45.3 °F 34.7 °F 30.49 in Calm   3.0 mph 66 % 0.00 in
06:39 45.5 °F 34.9 °F 30.49 in NNW 1.0 mph 3.0 mph 66 % 0.00 in
06:44 45.5 °F 34.3 °F 30.49 in Calm   3.0 mph 65 % 0.00 in
06:49 45.5 °F 34.3 °F 30.50 in Calm   3.0 mph 65 % 0.00 in
06:54 45.5 °F 34.9 °F 30.49 in NNE 2.0 mph 3.0 mph 66 % 0.00 in
06:59 45.7 °F 34.5 °F 30.50 in Calm   5.0 mph 65 % 0.00 in
07:04 45.9 °F 34.7 °F 30.49 in North 1.0 mph 5.0 mph 65 % 0.00 in
07:09 46.0 °F 34.9 °F 30.50 in Calm   5.0 mph 65 % 0.00 in
07:14 46.0 °F 34.9 °F 30.50 in East 1.0 mph 5.0 mph 65 % 0.00 in
07:19 46.2 °F 34.7 °F 30.50 in NNE 2.0 mph 4.0 mph 64 % 0.00 in
07:24 46.4 °F 35.2 °F 30.50 in East 1.0 mph 5.0 mph 65 % 0.00 in
07:29 46.8 °F 35.6 °F 30.50 in NNE 1.0 mph 5.0 mph 65 % 0.00 in
07:34 47.1 °F 35.6 °F 30.51 in Calm   5.0 mph 64 % 0.00 in
07:39 47.8 °F 36.3 °F 30.51 in Calm   2.0 mph 64 % 0.00 in
07:44 48.6 °F 36.1 °F 30.50 in Calm   2.0 mph 62 % 0.00 in
07:49 49.3 °F 36.0 °F 30.51 in ENE 1.0 mph 3.0 mph 60 % 0.00 in
07:55 50.2 °F 36.3 °F 30.51 in Calm   7.0 mph 59 % 0.00 in
08:00 50.9 °F 36.7 °F 30.51 in East 3.0 mph 7.0 mph 58 % 0.00 in
08:05 51.3 °F 35.6 °F 30.51 in ENE 3.0 mph 7.0 mph 55 % 0.00 in
08:10 51.4 °F 35.8 °F 30.52 in East 2.0 mph 8.0 mph 55 % 0.00 in
08:15 51.8 °F 36.1 °F 30.52 in NNE 5.0 mph 8.0 mph 55 % 0.00 in
08:20 52.3 °F 35.8 °F 30.52 in East 4.0 mph 7.0 mph 53 % 0.00 in
08:25 52.9 °F 35.8 °F 30.52 in NW 2.0 mph 7.0 mph 52 % 0.00 in
08:30 53.4 °F 35.8 °F 30.52 in NNE 2.0 mph 7.0 mph 51 % 0.00 in
08:35 54.3 °F 36.1 °F 30.53 in South 1.0 mph 6.0 mph 50 % 0.00 in
08:40 55.2 °F 36.9 °F 30.53 in ENE 2.0 mph 6.0 mph 50 % 0.00 in
08:45 55.8 °F 36.3 °F 30.53 in Calm   6.0 mph 48 % 0.00 in
08:50 56.7 °F 36.1 °F 30.53 in NNW 1.0 mph 6.0 mph 46 % 0.00 in
08:55 57.4 °F 35.1 °F 30.53 in ESE 1.0 mph 7.0 mph 43 % 0.00 in
09:00 58.3 °F 35.2 °F 30.53 in ESE 1.0 mph 7.0 mph 42 % 0.00 in
09:05 58.3 °F 34.7 °F 30.53 in NE 7.0 mph 10.0 mph 41 % 0.00 in
09:10 58.5 °F 34.2 °F 30.53 in East 4.0 mph 10.0 mph 40 % 0.00 in
09:15 58.8 °F 34.0 °F 30.53 in East 5.0 mph 13.0 mph 39 % 0.00 in
09:20 58.8 °F 34.5 °F 30.53 in East 6.0 mph 13.0 mph 40 % 0.00 in
09:25 59.5 °F 34.5 °F 30.54 in ENE 4.0 mph 13.0 mph 39 % 0.00 in
09:30 59.7 °F 34.7 °F 30.54 in North 2.0 mph 12.0 mph 39 % 0.00 in
09:35 60.4 °F 34.7 °F 30.53 in NE 6.0 mph 8.0 mph 38 % 0.00 in
09:40 60.6 °F 33.4 °F 30.54 in ENE 9.0 mph 10.0 mph 36 % 0.00 in
09:45 61.0 °F 34.5 °F 30.54 in East 6.0 mph 14.0 mph 37 % 0.00 in
09:50 61.3 °F 33.4 °F 30.54 in East 2.0 mph 14.0 mph 35 % 0.00 in
09:55 61.7 °F 34.5 °F 30.54 in East 2.0 mph 14.0 mph 36 % 0.00 in
10:00 62.1 °F 33.4 °F 30.54 in NNE 3.0 mph 12.0 mph 34 % 0.00 in
10:05 62.2 °F 33.4 °F 30.54 in ESE 3.0 mph 11.0 mph 34 % 0.00 in
10:10 63.1 °F 32.7 °F 30.54 in ESE 6.0 mph 13.0 mph 32 % 0.00 in
10:15 63.3 °F 31.3 °F 30.54 in ENE 4.0 mph 15.0 mph 30 % 0.00 in
10:20 63.3 °F 31.3 °F 30.54 in SE 2.0 mph 17.0 mph 30 % 0.00 in
10:25 63.5 °F 31.5 °F 30.54 in East 6.0 mph 17.0 mph 30 % 0.00 in
10:30 64.0 °F 32.7 °F 30.54 in NE 2.0 mph 17.0 mph 31 % 0.00 in
10:35 64.4 °F 31.5 °F 30.54 in North 4.0 mph 15.0 mph 29 % 0.00 in
10:40 64.4 °F 32.4 °F 30.54 in West 7.0 mph 15.0 mph 30 % 0.00 in
10:45 64.6 °F 30.7 °F 30.54 in ENE 7.0 mph 14.0 mph 28 % 0.00 in
10:50 64.9 °F 32.7 °F 30.53 in WNW 4.0 mph 14.0 mph 30 % 0.00 in
10:55 65.7 °F 31.6 °F 30.53 in NNW 4.0 mph 13.0 mph 28 % 0.00 in
11:00 65.8 °F 31.8 °F 30.53 in ENE 2.0 mph 11.0 mph 28 % 0.00 in
11:05 65.7 °F 31.6 °F 30.53 in North 6.0 mph 13.0 mph 28 % 0.00 in
11:10 66.6 °F 33.3 °F 30.53 in Calm   13.0 mph 29 % 0.00 in
11:16 66.6 °F 30.6 °F 30.53 in NNE 5.0 mph 13.0 mph 26 % 0.00 in
11:26 66.6 °F 31.5 °F 30.52 in East 3.0 mph 12.0 mph 27 % 0.00 in
11:31 66.9 °F 31.8 °F 30.52 in East 3.0 mph 12.0 mph 27 % 0.00 in
11:36 66.9 °F 30.9 °F 30.52 in ESE 2.0 mph 12.0 mph 26 % 0.00 in
11:41 66.9 °F 30.0 °F 30.52 in South 2.0 mph 12.0 mph 25 % 0.00 in
11:46 67.6 °F 32.5 °F 30.51 in NNE 3.0 mph 13.0 mph 27 % 0.00 in
11:51 67.6 °F 30.6 °F 30.52 in ESE 2.0 mph 13.0 mph 25 % 0.00 in
11:56 68.2 °F 32.0 °F 30.51 in East 2.0 mph 13.0 mph 26 % 0.00 in
12:01 69.1 °F 32.7 °F 30.51 in NE 6.0 mph 12.0 mph 26 % 0.00 in
12:06 69.1 °F 31.8 °F 30.51 in ESE 5.0 mph 11.0 mph 25 % 0.00 in
12:11 68.5 °F 30.4 °F 30.51 in SE 8.0 mph 13.0 mph 24 % 0.00 in
12:16 68.4 °F 32.2 °F 30.51 in ESE 10.0 mph 13.0 mph 26 % 0.00 in
12:21 68.5 °F 31.3 °F 30.51 in East 6.0 mph 13.0 mph 25 % 0.00 in
12:26 68.5 °F 31.3 °F 30.50 in SE 3.0 mph 13.0 mph 25 % 0.00 in
12:31 68.7 °F 34.3 °F 30.50 in SSW 3.0 mph 12.0 mph 28 % 0.00 in
12:36 69.3 °F 30.9 °F 30.49 in East 3.0 mph 14.0 mph 24 % 0.00 in
12:41 69.6 °F 31.3 °F 30.49 in ESE 5.0 mph 14.0 mph 24 % 0.00 in
12:46 69.8 °F 31.5 °F 30.49 in SE 9.0 mph 14.0 mph 24 % 0.00 in
12:51 69.1 °F 30.7 °F 30.48 in East 3.0 mph 15.0 mph 24 % 0.00 in
12:56 69.3 °F 30.9 °F 30.48 in East 3.0 mph 15.0 mph 24 % 0.00 in
13:01 69.4 °F 33.1 °F 30.48 in NNE 2.0 mph 15.0 mph 26 % 0.00 in
13:06 69.6 °F 30.2 °F 30.48 in East 8.0 mph 11.0 mph 23 % 0.00 in
13:11 69.4 °F 33.1 °F 30.48 in ENE 1.0 mph 12.0 mph 26 % 0.00 in
13:16 70.2 °F 30.6 °F 30.47 in ESE 10.0 mph 12.0 mph 23 % 0.00 in
13:21 70.0 °F 31.5 °F 30.47 in SSE 6.0 mph 12.0 mph 24 % 0.00 in
13:26 70.2 °F 30.6 °F 30.47 in East 10.0 mph 12.0 mph 23 % 0.00 in
13:31 69.6 °F 30.2 °F 30.47 in SE 7.0 mph 13.0 mph 23 % 0.00 in
13:36 69.8 °F 32.4 °F 30.46 in ESE 8.0 mph 13.0 mph 25 % 0.00 in
13:41 70.0 °F 30.6 °F 30.46 in SE 2.0 mph 13.0 mph 23 % 0.00 in
13:46 70.2 °F 31.6 °F 30.46 in ENE 2.0 mph 12.0 mph 24 % 0.00 in
13:51 70.9 °F 34.3 °F 30.46 in South 1.0 mph 12.0 mph 26 % 0.00 in
13:56 70.5 °F 33.1 °F 30.46 in SE 8.0 mph 9.0 mph 25 % 0.00 in
14:01 70.5 °F 33.1 °F 30.45 in ESE 8.0 mph 12.0 mph 25 % 0.00 in
14:06 71.1 °F 33.4 °F 30.45 in NNW 2.0 mph 12.0 mph 25 % 0.00 in
14:11 70.9 °F 31.3 °F 30.45 in SSE 4.0 mph 12.0 mph 23 % 0.00 in
14:16 70.2 °F 30.6 °F 30.45 in ESE 8.0 mph 12.0 mph 23 % 0.00 in
14:21 70.0 °F 31.5 °F 30.44 in ESE 8.0 mph 12.0 mph 24 % 0.00 in
14:26 70.0 °F 30.6 °F 30.44 in SE 5.0 mph 12.0 mph 23 % 0.00 in
14:27 70.0 °F 30.6 °F 30.44 in ESE 5.0 mph 12.0 mph 23 % 0.00 in
14:32 69.6 °F 31.3 °F 30.44 in SE 1.0 mph 11.0 mph 24 % 0.00 in
14:36 69.4 °F 32.0 °F 30.44 in ESE 3.0 mph 10.0 mph 25 % 0.00 in
14:42 69.6 °F 31.3 °F 30.44 in ENE 1.0 mph 11.0 mph 24 % 0.00 in
14:47 69.6 °F 32.2 °F 30.44 in NE 5.0 mph 11.0 mph 25 % 0.00 in
14:52 70.2 °F 33.6 °F 30.44 in South 5.0 mph 11.0 mph 26 % 0.00 in
14:57 70.3 °F 32.9 °F 30.44 in East 11.0 mph 11.0 mph 25 % 0.00 in
15:02 70.3 °F 32.9 °F 30.43 in ESE 6.0 mph 12.0 mph 25 % 0.00 in
15:07 70.3 °F 32.9 °F 30.44 in ESE 2.0 mph 12.0 mph 25 % 0.00 in
15:12 69.8 °F 33.4 °F 30.43 in SE 5.0 mph 12.0 mph 26 % 0.00 in
15:17 69.6 °F 33.3 °F 30.43 in ENE 2.0 mph 12.0 mph 26 % 0.00 in
15:22 70.0 °F 32.5 °F 30.43 in NE 5.0 mph 12.0 mph 25 % 0.00 in
15:27 70.5 °F 33.1 °F 30.43 in ESE 9.0 mph 9.0 mph 25 % 0.00 in
15:32 70.2 °F 31.6 °F 30.43 in East 4.0 mph 14.0 mph 24 % 0.00 in
15:37 69.8 °F 31.5 °F 30.43 in East 3.0 mph 14.0 mph 24 % 0.00 in
15:42 69.6 °F 32.2 °F 30.43 in East 3.0 mph 14.0 mph 25 % 0.00 in
15:47 69.4 °F 32.0 °F 30.43 in ESE 5.0 mph 10.0 mph 25 % 0.00 in
15:52 69.1 °F 31.8 °F 30.43 in East 2.0 mph 10.0 mph 25 % 0.00 in
15:57 69.1 °F 32.7 °F 30.42 in ESE 2.0 mph 10.0 mph 26 % 0.00 in
16:02 69.6 °F 34.2 °F 30.42 in SE 5.0 mph 10.0 mph 27 % 0.00 in
16:07 70.3 °F 32.9 °F 30.43 in ENE 5.0 mph 10.0 mph 25 % 0.00 in
16:12 70.2 °F 33.6 °F 30.43 in ESE 5.0 mph 8.0 mph 26 % 0.00 in
16:17 69.3 °F 32.9 °F 30.42 in ESE 7.0 mph 13.0 mph 26 % 0.00 in
16:22 68.5 °F 32.4 °F 30.42 in ESE 5.0 mph 13.0 mph 26 % 0.00 in
16:27 68.5 °F 33.3 °F 30.42 in SE 9.0 mph 13.0 mph 27 % 0.00 in
16:32 68.9 °F 32.5 °F 30.42 in SE 6.0 mph 11.0 mph 26 % 0.00 in
16:37 69.1 °F 32.7 °F 30.42 in SSE 5.0 mph 11.0 mph 26 % 0.00 in
16:42 69.3 °F 33.8 °F 30.42 in SE 2.0 mph 11.0 mph 27 % 0.00 in
16:47 69.4 °F 33.1 °F 30.42 in SE 4.0 mph 9.0 mph 26 % 0.00 in
16:52 69.4 °F 33.1 °F 30.42 in ESE 7.0 mph 9.0 mph 26 % 0.00 in
16:57 69.6 °F 34.2 °F 30.43 in East 4.0 mph 9.0 mph 27 % 0.00 in
17:02 69.4 °F 33.1 °F 30.43 in SE 4.0 mph 9.0 mph 26 % 0.00 in
17:07 69.1 °F 33.6 °F 30.43 in SSE 5.0 mph 9.0 mph 27 % 0.00 in
17:12 68.5 °F 33.3 °F 30.43 in ESE 8.0 mph 9.0 mph 27 % 0.00 in
17:17 68.4 °F 33.1 °F 30.43 in SSE 5.0 mph 8.0 mph 27 % 0.00 in
17:22 67.8 °F 33.4 °F 30.43 in East 2.0 mph 11.0 mph 28 % 0.00 in
17:27 67.6 °F 35.1 °F 30.43 in SE 6.0 mph 11.0 mph 30 % 0.00 in
17:32 67.6 °F 36.7 °F 30.43 in SSE 6.0 mph 11.0 mph 32 % 0.00 in
17:37 67.1 °F 36.3 °F 30.43 in South 7.0 mph 10.0 mph 32 % 0.00 in
17:42 66.9 °F 36.9 °F 30.43 in SE 4.0 mph 10.0 mph 33 % 0.00 in
17:47 66.6 °F 36.5 °F 30.43 in SE 5.0 mph 10.0 mph 33 % 0.00 in
17:52 66.4 °F 36.3 °F 30.44 in ESE 4.0 mph 10.0 mph 33 % 0.00 in
17:57 66.0 °F 36.9 °F 30.44 in SE 4.0 mph 10.0 mph 34 % 0.00 in
18:02 66.0 °F 38.3 °F 30.43 in ESE 7.0 mph 8.0 mph 36 % 0.00 in
18:07 65.8 °F 38.8 °F 30.44 in SE 5.0 mph 10.0 mph 37 % 0.00 in
18:12 65.7 °F 39.4 °F 30.44 in ESE 7.0 mph 10.0 mph 38 % 0.00 in
18:17 65.5 °F 39.2 °F 30.44 in SE 8.0 mph 10.0 mph 38 % 0.00 in
18:22 65.5 °F 39.9 °F 30.44 in South 2.0 mph 10.0 mph 39 % 0.00 in
18:27 65.1 °F 40.3 °F 30.45 in SSW 5.0 mph 10.0 mph 40 % 0.00 in
18:32 64.9 °F 39.4 °F 30.44 in East 4.0 mph 10.0 mph 39 % 0.00 in
18:37 64.8 °F 39.9 °F 30.44 in East 5.0 mph 8.0 mph 40 % 0.00 in
18:42 64.6 °F 39.7 °F 30.45 in South 4.0 mph 11.0 mph 40 % 0.00 in
18:47 64.4 °F 39.6 °F 30.45 in SE 2.0 mph 11.0 mph 40 % 0.00 in
18:52 64.0 °F 39.2 °F 30.45 in ESE 4.0 mph 11.0 mph 40 % 0.00 in
18:53 64.0 °F 39.9 °F 30.45 in SE 2.0 mph 11.0 mph 41 % 0.00 in
18:58 63.9 °F 39.7 °F 30.45 in ESE 2.0 mph 6.0 mph 41 % 0.00 in
19:03 63.7 °F 39.6 °F 30.45 in SE 4.0 mph 7.0 mph 41 % 0.00 in
19:08 63.5 °F 39.9 °F 30.45 in SE 3.0 mph 7.0 mph 42 % 0.00 in
19:13 63.3 °F 39.9 °F 30.45 in ESE 3.0 mph 7.0 mph 42 % 0.00 in
19:18 63.3 °F 40.5 °F 30.45 in East 3.0 mph 7.0 mph 43 % 0.00 in
19:23 63.1 °F 40.3 °F 30.45 in SSE 3.0 mph 7.0 mph 43 % 0.00 in
19:28 63.0 °F 40.6 °F 30.45 in SSE 4.0 mph 7.0 mph 44 % 0.00 in
19:33 63.0 °F 40.6 °F 30.45 in SSE 3.0 mph 8.0 mph 44 % 0.00 in
19:38 62.8 °F 40.5 °F 30.45 in SSE 2.0 mph 8.0 mph 44 % 0.00 in
19:43 62.6 °F 41.0 °F 30.45 in SSE 2.0 mph 8.0 mph 45 % 0.00 in
19:48 62.4 °F 40.8 °F 30.45 in SSE 1.0 mph 6.0 mph 45 % 0.00 in
19:53 62.1 °F 41.0 °F 30.45 in SE 2.0 mph 6.0 mph 46 % 0.00 in
19:58 61.5 °F 41.2 °F 30.45 in Calm   4.0 mph 47 % 0.00 in
20:03 61.5 °F 41.2 °F 30.45 in SSE 2.0 mph 4.0 mph 47 % 0.00 in
20:08 61.5 °F 41.2 °F 30.45 in ESE 1.0 mph 5.0 mph 47 % 0.00 in
20:13 61.3 °F 41.5 °F 30.45 in East 3.0 mph 5.0 mph 48 % 0.00 in
20:18 61.3 °F 41.5 °F 30.45 in SE 4.0 mph 6.0 mph 48 % 0.00 in
20:23 61.2 °F 41.9 °F 30.45 in SE 2.0 mph 6.0 mph 49 % 0.00 in
20:28 61.0 °F 41.7 °F 30.45 in SSE 2.0 mph 6.0 mph 49 % 0.00 in
20:33 60.8 °F 42.1 °F 30.45 in ESE 1.0 mph 5.0 mph 50 % 0.00 in
20:38 60.6 °F 41.9 °F 30.45 in ESE 2.0 mph 4.0 mph 50 % 0.00 in
20:43 60.4 °F 42.3 °F 30.45 in SE 2.0 mph 3.0 mph 51 % 0.00 in
20:48 60.3 °F 42.1 °F 30.45 in ESE 1.0 mph 4.0 mph 51 % 0.00 in
20:53 60.1 °F 42.4 °F 30.45 in Calm   4.0 mph 52 % 0.00 in
20:58 59.9 °F 42.3 °F 30.45 in Calm   4.0 mph 52 % 0.00 in
21:03 59.5 °F 42.4 °F 30.45 in Calm   2.0 mph 53 % 0.00 in
21:08 59.5 °F 42.8 °F 30.45 in Calm   2.0 mph 54 % 0.00 in
21:13 59.4 °F 42.8 °F 30.45 in Calm   2.0 mph 54 % 0.00 in
21:18 59.2 °F 42.6 °F 30.45 in East 1.0 mph 3.0 mph 54 % 0.00 in
21:23 59.0 °F 42.8 °F 30.45 in Calm   3.0 mph 55 % 0.00 in
21:28 58.8 °F 42.6 °F 30.45 in Calm   3.0 mph 55 % 0.00 in
21:33 58.6 °F 43.0 °F 30.45 in Calm   2.0 mph 56 % 0.00 in
21:38 58.6 °F 43.0 °F 30.45 in Calm   1.0 mph 56 % 0.00 in
21:43 58.5 °F 43.3 °F 30.45 in Calm   1.0 mph 57 % 0.00 in
21:48 58.3 °F 43.2 °F 30.45 in Calm   1.0 mph 57 % 0.00 in
21:54 58.3 °F 43.2 °F 30.45 in Calm   1.0 mph 57 % 0.00 in
21:59 58.3 °F 43.5 °F 30.45 in Calm   1.0 mph 58 % 0.00 in
22:04 58.3 °F 43.5 °F 30.45 in Calm   1.0 mph 58 % 0.00 in
22:09 58.3 °F 43.5 °F 30.45 in Calm   1.0 mph 58 % 0.00 in
22:14 58.5 °F 43.7 °F 30.45 in Calm   1.0 mph 58 % 0.00 in
22:19 58.6 °F 43.9 °F 30.45 in Calm   1.0 mph 58 % 0.00 in
22:24 58.6 °F 43.9 °F 30.45 in ESE 1.0 mph 1.0 mph 58 % 0.00 in
22:29 58.6 °F 43.9 °F 30.45 in ESE 1.0 mph 1.0 mph 58 % 0.00 in
22:34 58.6 °F 43.9 °F 30.45 in Calm   2.0 mph 58 % 0.00 in
22:39 58.6 °F 44.4 °F 30.45 in Calm   2.0 mph 59 % 0.00 in
22:44 58.3 °F 44.1 °F 30.45 in Calm   2.0 mph 59 % 0.00 in
22:49 58.1 °F 44.2 °F 30.45 in Calm   1.0 mph 60 % 0.00 in
22:54 58.3 °F 45.0 °F 30.45 in Calm   1.0 mph 61 % 0.00 in
22:59 57.9 °F 44.6 °F 30.45 in Calm   1.0 mph 61 % 0.00 in
23:04 57.9 °F 45.0 °F 30.44 in Calm   1.0 mph 62 % 0.00 in
23:09 57.7 °F 44.8 °F 30.44 in Calm   1.0 mph 62 % 0.00 in
23:14 57.7 °F 44.8 °F 30.44 in Calm   1.0 mph 62 % 0.00 in
23:19 57.7 °F 44.8 °F 30.44 in Calm   1.0 mph 62 % 0.00 in
23:24 57.6 °F 45.1 °F 30.44 in Calm   1.0 mph 63 % 0.00 in
23:29 57.2 °F 44.8 °F 30.44 in Calm   1.0 mph 63 % 0.00 in
23:34 57.0 °F 45.0 °F 30.43 in Calm   1.0 mph 64 % 0.00 in
23:39 57.2 °F 45.5 °F 30.43 in Calm   1.0 mph 65 % 0.00 in
23:44 57.2 °F 45.5 °F 30.43 in Calm   1.0 mph 65 % 0.00 in
23:49 57.2 °F 45.5 °F 30.43 in Calm   1.0 mph 65 % 0.00 in
23:54 57.0 °F 45.3 °F 30.43 in Calm   1.0 mph 65 % 0.00 in
23:59 57.0 °F 45.3 °F 30.43 in Calm     65 % 0.00 in
Spring, Texas: Villages of Bridgestone
Compliments of Weather Underground - 3 mb

Script developed by  Jim McMurry - jmcmurry@mwt.net Adapted for the template by  Wim van der Kuil - Leuven-Template.eu

You find our weather info also at:

UK Metoffice

WeatherCloud

Weather Underground

Mid-South Weather Network

AWEKAS

Citizen Weather Observer Program (CWOP)

HAMweather, WeatherForYou, PWS Weather

Equipment we use:

Weather-station
Davis Vantage Vue

Weather-program
Meteohub

Weather-server
Debian 7.9 x86 (Guest)

Provider
DreamHost

Davis Vantage Vue

Meteohub

Debian 7.9 x86 (Guest)

DreamHost